Flag for India Weather past 2 weeks in Bhinga, Uttar Pradesh, India

Now
61 °F

Clear.


Feels Like: 61 °F
Forecast: 46 / 73 °F
Wind: 2 mph from North

Location: Lucknow / Amausi

Current Time: Dec 21, 2014 at 3:39:58 PM

Latest Report: Dec 21, 2014 at 3:00 PM


Visibility: 1 mi

Pressure: 30.01 "Hg

Humidity: 68%

Dew point: 50 °F

Location of BhingaLocation

Historic Weather in Bhinga — Graph

°F

Bhinga temperature yesterday

Maximum temperature yesterday: 55 °F (at 12:30 PM)
Minimum temperature yesterday: 46 °F (at 6:00 AM)
Average temperature yesterday: 51 °F

Past Weeks' High & Low Weather Summary

 TemperatureHumidityPressure
High77 °F (Dec 7, 2:00 PM)100% (Dec 9, 3:00 AM)30.24 "Hg (Dec 9, 3:00 AM)
Low43 °F (Dec 12, 5:00 AM)25% (Dec 11, 1:00 PM)29.89 "Hg (Dec 7, 2:00 PM)
Average59 °F78%30.04 "Hg
* Reported Dec 6 1:30 PM — Dec 21 1:30 PM, Bhinga, Weather by CustomWeather, © 2014

Note: Actual official high and low records may vary slightly from our data, if they occured in-between our weather recording intervals... More about our weather records

Advertising

Bhinga weather history for previous 24 hours

 ConditionsComfort  
Time TempWeatherWind HumidityBarometerVisibility
1:30 PM
Dec 21
59 °FBroken clouds.2 mph77%30.04 "Hg1 mi
12:30 PM57 °FFog.No wind72%30.07 "Hg1 mi
12:00 PM57 °FFog.No wind72%30.07 "Hg1 mi
11:30 AM55 °FFog.No wind77%30.09 "Hg1 mi
11:00 AM55 °FFog.No wind77%30.12 "Hg1 mi
10:30 AM54 °FFog.No wind82%30.12 "Hg1 mi
10:00 AM54 °FFog.No wind82%30.12 "Hg1 mi
9:30 AM54 °FFog.No wind82%30.09 "Hg1 mi
9:00 AM52 °FFog.No wind88%30.09 "Hg1 mi
8:30 AM52 °FFog.No wind88%30.07 "Hg1 mi
7:30 AM52 °FFog.No wind88%30.07 "Hg1 mi
7:00 AM52 °FFog.No wind88%30.04 "Hg1 mi
6:30 AM52 °FFog.No wind94%30.04 "Hg1 mi
6:00 AM52 °FFog.2 mph94%30.01 "Hg1 mi
5:00 AM52 °FFog.5 mph94%30.01 "Hg1 mi
4:00 AM52 °FFog.No wind94%30.01 "Hg1 mi
3:00 AM52 °FFog.No wind94%30.04 "Hg1 mi
2:00 AM48 °FFog.No wind94%30.04 "Hg1 mi
1:00 AM48 °FFog.No wind94%30.04 "Hg1 mi
12:00 AM50 °FFog.No wind94%30.04 "Hg0 mi
11:00 PM
Dec 20
48 °FFog.2 mph94%30.07 "Hg0 mi
10:00 PM48 °FFog.2 mph94%30.07 "Hg0 mi
7:30 PM50 °FFog.No wind94%30.01 "Hg1 mi
7:00 PM50 °FFog.No wind94%30.01 "Hg1 mi
6:30 PM52 °FFog.No wind88%30.01 "Hg1 mi
6:00 PMN/AFog.No windN/A30.01 "Hg1 mi
5:30 PM54 °FFog.2 mph88%30.01 "Hg1 mi
4:30 PM55 °FFog.2 mph82%30.01 "Hg1 mi
4:00 PM55 °FFog.5 mph82%30.01 "Hg1 mi
3:30 PM55 °FFog.5 mph77%30.01 "Hg1 mi
3:00 PM55 °FFog.5 mph77%30.01 "Hg1 mi
Weather by CustomWeather, © 2014

See weather overviewHow to use our weather pages